Regional Weather Roundup
Issued by NWS

Home | Current Version | Previous Version | Text Only | Print | Product List | Glossary Off
Versions: 1 2 3 4 5 6 7 8 9 10 11 12 13 14 15 16 17 18 19 20 21 22 23 24 25 26 27 28 29 30 31 32 33 34 35 36 37 38 39 40 41 42 43 44 45 46 47 48 49 50

000
ASUS45 KSLC 230410
RWRUT

UTAH REGIONAL WEATHER ROUNDUP
NATIONAL WEATHER SERVICE SALT LAKE CITY UT
1000 PM MDT MON SEP 22 2014

UTZ001>011-023>025-230500-

NORTHERN UTAH

CITY           SKY/WX    TMP DP  RH WIND       PRES   REMARKS
HILL AFB       MOCLDY    66  50  56 E7        30.13F
LOGAN          CLOUDY    64  54  69 CALM      30.12R
OGDEN          MOCLDY    66  53  63 S6        30.11S
PROVO AIRPORT  PTCLDY    61  54  77 SE6       30.14S
SALT LAKE CITY MOCLDY    68  53  58 S6        30.10S
VERNAL         CLOUDY    63  55  75 CALM      30.17S
WENDOVER       CLEAR     66  54  63 W5        30.11R
HEBER CITY     MOCLDY    55  50  82 SE3       30.19S
WEST JORDAN    CLOUDY    66  54  63 W5        30.13S

$$

UTZ012>022-026-027-230500-

SOUTHERN UTAH

CITY           SKY/WX    TMP DP  RH WIND       PRES   REMARKS
BRYCE CANYON   CLEAR     49  39  68 W6        30.35R
CEDAR CITY     CLEAR     62  38  40 SE8       30.20S
MILFORD        MOCLDY    65  49  56 S9        30.15R
MOAB/CYNLANDS  CLOUDY    66  56  70 CALM      30.11R
PRICE          CLOUDY    62  55  77 N7        30.21S
ST GEORGE      PTCLDY    75  45  33 S3        30.04R
KANAB            N/A     64  45  48 N8        30.20R

$$

REGIONAL REPORTS     COLORADO/ARIZONA

CITY           SKY/WX    TMP DP  RH WIND       PRES   REMARKS
CRAIG, CO      MOCLDY    57  48  72 W7        30.24R
GRAND JUNCTION CLOUDY    64  53  67 CALM      30.15R
RIFLE          CLOUDY    61  53  75 S6        30.21R
MONTROSE       CLEAR     58  54  86 SE7       30.24R
CORTEZ         CLEAR     57  50  77 E3        30.23R
PAGE, AZ       CLEAR     74  44  34 CALM      30.10S
GRAND CANYON   CLEAR     50  43  77 CALM      30.29R
KINGMAN        CLEAR     72  36  26 SW9       30.08R
FLAGSTAFF      CLEAR     55  47  74 CALM      30.33R

$$

REGIONAL REPORTS    NEVADA/IDAHO/WYOMING

CITY           SKY/WX    TMP DP  RH WIND       PRES   REMARKS
LAS VEGAS, NV  PTCLDY    88  38  17 S6        29.92R
ELY            PTCLDY    56  44  64 S10       30.23R
ELKO           CLEAR     62  44  51 CALM      30.13R
POCATELLO, ID  CLEAR     57  52  83 S6        30.12R
BURLEY         CLEAR     59  52  77 CALM      30.08S
EVANSTON, WY   CLOUDY    57  43  59 CALM      30.27S
ROCK SPRINGS   PTCLDY    53  44  71 NW6       30.25R

$$



USA.gov is the U.S. government's official web portal to all federal, state and local government web resources and services.